Wind_Speed
10 9 8 7 7 6 5 4 3 3 4 4 4 5 5 6 6 6 7 7 7 7 7 7 7 7 7 8 7 7 7 7 7 8 8 9 10 10 11 13 14 16 17
10 10 9 8 8 7 6 6 5 5 5 5 5 5 5 6 7 7 7 7 7 7 8 8 9 9 8 9 8 8 8 9 9 9 10 10 11 12 12 14 14 15 17
11 10 10 9 8 8 8 7 7 7 7 6 6 6 6 7 7 8 8 8 8 8 9 10 10 10 10 10 10 10 10 11 11 11 11 11 12 13 14 15 16 17 18
12 12 11 10 10 9 9 9 9 8 8 8 8 7 8 8 8 9 9 10 10 10 11 12 12 12 12 12 12 12 13 13 13 13 13 13 13 14 15 16 17 18 20
13 12 12 11 11 10 10 10 10 9 9 9 9 9 9 10 10 11 11 12 12 13 13 14 14 14 14 14 14 15 15 15 15 15 15 15 16 16 17 18 19 20 21
14 13 12 12 12 11 11 11 11 11 11 10 10 11 11 12 12 13 14 14 15 15 16 16 16 16 16 16 17 17 17 17 18 18 18 19 19 19 19 20 21 22 23
14 14 14 13 12 12 11 11 11 11 11 12 12 13 13 14 15 15 16 17 18 18 18 19 19 19 19 19 19 19 20 20 21 21 21 21 22 22 23 23 24 25 26
15 15 15 14 13 13 13 13 13 13 13 14 14 15 16 16 17 18 19 20 20 21 21 22 22 22 22 22 22 22 23 24 24 24 25 25 25 26 26 27 28 28 29
16 16 16 15 15 14 14 14 14 15 15 15 16 17 18 19 20 21 22 23 23 24 24 24 24 24 24 25 25 26 26 27 27 28 28 28 29 29 30 31 31 32 33
17 17 16 16 16 16 16 16 16 16 17 17 18 19 20 21 23 24 25 26 26 26 26 26 27 27 28 28 28 29 29 30 30 31 31 32 33 33 34 34 35 36 36
18 18 18 18 18 18 18 18 18 18 19 20 21 22 23 24 25 26 27 28 29 29 29 29 29 30 30 31 31 32 33 33 34 34 35 36 37 37 37 38 38 39 39
20 19 19 20 20 20 20 21 21 21 22 23 24 25 26 27 28 29 29 30 30 30 31 31 32 32 33 34 35 35 36 36 37 38 38 39 39 39 39 40 40 41 42
21 21 22 22 22 22 23 23 23 24 25 26 27 28 29 30 31 32 32 32 32 32 33 34 35 35 36 36 37 38 38 39 40 40 41 41 41 42 42 42 43 44 45
23 23 24 24 25 25 25 26 27 28 29 30 30 31 32 33 34 34 34 34 34 35 36 37 37 38 39 39 39 40 41 42 42 42 42 43 44 44 45 46 46 47 48
25 25 26 27 27 28 28 29 30 31 32 33 34 34 35 35 36 36 36 36 36 37 38 39 40 41 42 42 42 43 43 44 44 45 46 46 47 48 49 49 50 50 51
26 27 28 29 30 31 31 32 33 34 35 36 36 37 37 37 37 37 37 38 39 40 41 41 43 43 44 44 45 45 45 46 47 47 48 49 50 51 51 52 52 52 52
29 30 30 31 32 33 34 35 36 36 37 38 38 39 39 39 39 39 40 41 42 43 43 43 44 45 45 46 46 47 48 48 49 50 51 52 53 53 53 53 53 53 53
32 32 33 33 34 36 37 38 38 38 39 39 40 40 40 41 41 42 43 43 44 45 45 46 46 47 48 49 49 50 50 51 52 53 53 53 54 54 54 53 53 53 53
34 35 36 37 37 38 39 40 40 41 41 41 41 42 42 43 44 44 45 45 46 46 47 48 48 49 50 51 51 51 52 53 53 54 53 54 54 54 53 53 53 54 54
37 38 38 39 40 40 41 41 42 43 43 43 43 44 44 45 45 46 46 47 48 49 49 50 50 51 52 53 53 53 53 53 54 53 53 53 53 53 53 54 54 54 54
39 39 40 40 41 41 42 43 44 44 44 44 45 46 46 47 47 48 48 49 50 51 51 52 52 52 53 54 54 54 54 54 54 54 53 53 53 53 54 54 53 53 53
40 41 42 42 43 43 44 44 44 44 45 45 46 47 48 49 49 50 50 51 52 52 52 53 53 54 54 53 54 54 55 55 54 54 53 52 52 52 53 53 53 53 52
41 42 43 43 44 44 44 44 44 45 46 47 48 49 49 50 51 52 52 52 53 53 53 54 54 54 54 54 54 54 54 54 53 53 53 53 52 52 52 52 52 51 50
43 43 44 44 45 45 45 45 46 46 47 49 50 50 51 52 52 53 53 53 53 54 54 54 54 55 55 54 53 53 53 53 53 54 53 53 52 52 52 51 50 49 48
44 44 44 45 45 46 46 47 48 49 49 50 51 52 52 52 53 53 54 54 54 54 54 54 55 55 54 53 53 53 53 53 53 53 52 52 51 51 50 49 47 46 45
45 45 46 47 47 48 48 49 50 50 51 51 52 52 52 53 53 54 54 55 55 55 54 54 54 54 54 53 53 52 52 52 52 51 52 51 50 49 47 46 45 44 43
Wind_Direction
231 232 236 238 246 257 263 273 295 308 309 316 321 328 333 341 349 355 359 0 2 2 0 359 359 354 347 342 336 332 327 320 314 305 291 286 281 277 269 260 255 252 250
233 238 239 240 248 256 259 270 280 292 293 295 303 315 326 334 343 347 347 346 347 348 346 345 345 342 338 336 331 325 323 320 314 307 296 289 284 280 274 267 262 258 255
237 239 239 244 253 258 259 266 274 280 283 285 293 301 311 321 331 337 337 338 337 336 335 334 332 330 326 326 323 318 316 315 312 305 299 294 288 282 276 271 266 263 260
237 236 241 249 254 259 262 268 272 277 279 281 286 292 300 308 314 321 326 328 326 325 326 325 324 323 319 316 315 312 310 309 308 305 301 298 292 285 280 275 270 267 264
236 238 244 250 253 257 262 267 270 273 274 277 281 286 293 299 304 309 313 316 316 315 316 316 315 314 314 311 310 308 305 304 303 301 297 297 293 288 283 279 275 271 268
237 241 247 250 253 257 262 266 270 273 274 275 279 284 288 293 297 301 304 306 308 308 308 307 307 306 305 305 304 302 300 299 299 297 294 293 293 289 286 283 279 276 274
239 243 248 251 254 257 262 267 270 273 276 278 283 285 287 290 293 296 298 301 302 303 302 302 301 300 300 300 299 299 297 296 296 295 293 292 291 288 286 285 283 280 278
241 245 248 250 253 257 261 265 270 274 278 281 284 287 289 291 292 294 296 298 299 300 299 299 297 296 295 295 296 296 295 294 294 293 292 291 290 289 287 285 283 282 280
243 247 248 250 253 258 263 267 272 277 280 283 286 288 290 292 293 295 296 296 297 297 297 296 295 294 292 292 292 293 294 293 292 292 291 290 289 288 287 286 285 283 282
246 248 249 251 256 261 265 269 273 276 280 284 286 289 292 293 294 295 296 296 295 295 295 294 294 293 292 291 291 291 291 291 291 291 291 291 290 289 288 287 286 284 283
247 249 251 254 258 263 267 270 274 277 280 284 287 290 292 294 295 296 296 296 295 294 294 294 293 293 292 291 291 291 291 291 291 291 291 291 290 290 289 288 287 285 284
250 251 253 256 260 264 268 272 275 278 282 285 288 291 293 295 296 296 295 295 294 294 293 293 293 292 292 292 291 291 291 292 291 291 291 290 290 289 288 288 287 286 286
253 254 257 259 262 266 270 274 276 279 283 285 288 291 293 294 294 295 294 293 293 294 293 293 293 293 293 293 292 292 291 292 292 292 291 290 289 288 288 288 288 288 287
257 258 261 263 266 268 272 275 278 281 283 285 288 290 292 293 293 293 293 292 293 293 294 294 294 294 294 294 294 294 293 293 292 291 291 290 289 289 288 288 288 288 287
258 260 264 266 268 270 273 275 278 281 284 286 288 290 291 292 293 293 292 292 293 294 295 295 295 295 295 295 295 294 293 293 292 291 291 291 290 290 289 289 288 287 287
261 263 265 268 270 272 274 277 279 282 284 287 289 290 291 292 292 292 291 291 292 293 294 294 295 295 295 295 295 294 293 293 292 292 292 292 291 290 290 289 288 287 287
264 266 268 270 272 274 276 278 280 282 284 286 288 289 290 291 291 292 291 291 292 293 294 294 295 295 296 296 295 295 295 294 293 293 293 293 292 291 290 289 288 288 287
267 268 270 272 274 276 278 279 281 283 284 286 287 288 289 290 291 292 292 292 293 294 294 294 294 295 295 296 296 296 295 295 294 294 293 293 293 292 291 290 289 289 288
269 271 273 274 276 278 280 281 281 283 284 285 286 288 289 290 291 291 292 292 293 294 294 294 294 294 294 295 295 295 295 295 295 294 294 293 293 292 291 290 289 289 289
272 273 275 276 277 279 280 282 283 284 284 285 286 287 288 289 290 291 292 292 293 294 294 294 294 294 295 295 295 295 296 295 295 294 294 294 293 293 292 291 290 290 289
273 274 275 277 278 280 282 283 284 284 284 285 286 287 288 289 290 291 291 292 293 294 294 294 294 294 295 295 295 295 295 295 295 295 294 295 295 294 293 292 290 290 290
275 275 277 278 280 281 283 283 283 283 284 285 287 288 289 290 291 291 292 292 292 293 294 294 294 295 295 295 295 294 294 294 294 295 294 294 295 295 294 292 291 290 289
276 277 278 279 280 281 282 283 283 284 285 287 288 289 290 290 291 292 293 293 293 294 294 295 295 294 295 295 295 295 295 295 294 294 294 294 294 294 294 294 292 290 287
276 277 279 280 281 281 282 282 283 285 286 287 288 289 290 291 292 292 293 293 293 294 295 295 295 295 295 296 295 295 295 294 294 294 294 294 294 294 294 293 291 289 287
277 278 279 279 280 280 281 283 284 285 286 288 289 290 291 292 292 293 293 293 294 294 295 295 295 296 296 295 295 294 294 293 294 293 293 293 294 294 293 291 290 288 286
277 278 279 280 280 281 282 283 284 285 286 288 289 290 291 292 293 293 294 294 294 294 294 295 295 296 296 295 295 294 293 293 293 293 293 293 293 293 291 290 288 287 286
Height
5866 5867 5868 5868 5869 5869 5869 5868 5868 5867 5867 5866 5865 5864 5863 5862 5861 5859 5858 5857 5856 5854 5853 5852 5850 5849 5848 5846 5845 5844 5843 5842 5841 5840 5839 5839 5838 5838 5838 5838 5839 5840 5841
5864 5865 5866 5866 5867 5867 5867 5867 5866 5866 5865 5864 5864 5863 5862 5861 5860 5859 5857 5856 5855 5854 5852 5851 5850 5848 5847 5846 5844 5843 5842 5840 5839 5838 5837 5836 5836 5836 5835 5835 5836 5836 5837
5861 5862 5863 5864 5864 5864 5865 5864 5864 5864 5863 5863 5862 5862 5861 5860 5859 5858 5856 5855 5854 5852 5851 5850 5848 5847 5846 5844 5843 5841 5840 5839 5837 5836 5835 5834 5833 5832 5832 5832 5832 5833 5833
5858 5859 5860 5861 5861 5861 5862 5862 5861 5861 5861 5860 5860 5860 5859 5858 5857 5856 5855 5853 5852 5851 5849 5848 5846 5845 5843 5842 5841 5839 5838 5836 5835 5834 5832 5831 5830 5829 5829 5828 5828 5829 5829
5855 5856 5857 5857 5858 5858 5858 5858 5858 5858 5858 5857 5857 5857 5856 5855 5854 5853 5852 5851 5850 5848 5847 5845 5844 5842 5841 5839 5838 5836 5835 5833 5832 5830 5829 5828 5827 5826 5825 5824 5824 5824 5824
5851 5852 5853 5854 5854 5854 5855 5855 5855 5854 5854 5854 5854 5853 5853 5852 5851 5850 5849 5848 5846 5845 5843 5842 5840 5839 5837 5835 5834 5832 5831 5829 5828 5826 5825 5823 5822 5821 5820 5819 5819 5818 5818
5847 5848 5849 5850 5850 5850 5851 5851 5851 5851 5850 5850 5850 5849 5849 5848 5847 5846 5845 5844 5842 5840 5839 5837 5835 5834 5832 5831 5829 5827 5826 5824 5823 5821 5819 5818 5816 5815 5814 5813 5812 5812 5811
5843 5844 5845 5846 5846 5847 5847 5847 5847 5847 5846 5846 5846 5845 5844 5843 5842 5841 5840 5839 5837 5835 5833 5831 5830 5828 5826 5824 5823 5821 5820 5818 5816 5815 5813 5811 5810 5808 5807 5806 5804 5804 5803
5839 5840 5841 5841 5842 5842 5843 5843 5842 5842 5842 5841 5841 5840 5839 5838 5836 5835 5834 5832 5830 5829 5827 5825 5823 5821 5819 5817 5816 5814 5812 5811 5809 5807 5805 5803 5801 5800 5798 5796 5795 5794 5793
5834 5835 5836 5837 5837 5838 5838 5838 5838 5837 5837 5836 5836 5834 5833 5832 5830 5829 5827 5825 5823 5821 5819 5817 5815 5813 5811 5809 5807 5805 5804 5802 5800 5798 5796 5794 5792 5790 5787 5785 5784 5782 5781
5829 5830 5831 5832 5832 5832 5832 5832 5832 5832 5831 5831 5830 5828 5827 5825 5823 5821 5819 5817 5814 5812 5810 5808 5806 5804 5802 5800 5798 5796 5794 5792 5790 5788 5786 5783 5781 5778 5776 5773 5771 5769 5768
5824 5825 5825 5826 5826 5827 5827 5827 5826 5826 5825 5824 5823 5821 5819 5818 5816 5813 5811 5809 5806 5804 5802 5799 5797 5795 5793 5791 5788 5786 5783 5781 5779 5777 5774 5771 5769 5766 5763 5761 5758 5756 5753
5818 5819 5819 5820 5820 5820 5820 5820 5819 5819 5818 5817 5815 5813 5811 5809 5807 5805 5802 5800 5797 5795 5792 5790 5788 5785 5782 5780 5778 5774 5772 5769 5766 5764 5761 5759 5756 5753 5750 5748 5745 5742 5740
5812 5812 5813 5813 5813 5813 5813 5812 5812 5811 5810 5808 5807 5805 5803 5800 5798 5795 5792 5790 5787 5785 5782 5780 5777 5774 5771 5768 5765 5762 5759 5756 5753 5750 5747 5745 5742 5739 5736 5733 5731 5728 5725
5805 5805 5805 5806 5806 5805 5805 5804 5803 5802 5801 5799 5797 5795 5793 5791 5788 5785 5782 5780 5777 5774 5771 5768 5765 5762 5758 5755 5752 5748 5745 5742 5739 5736 5733 5730 5727 5724 5721 5718 5714 5711 5708
5797 5797 5797 5797 5797 5796 5796 5795 5794 5792 5791 5789 5787 5785 5782 5780 5777 5774 5771 5768 5765 5762 5759 5756 5753 5749 5745 5742 5738 5735 5731 5728 5724 5721 5718 5715 5711 5708 5704 5700 5697 5693 5690
5789 5789 5789 5788 5788 5787 5786 5785 5783 5782 5780 5778 5776 5773 5771 5768 5765 5762 5759 5757 5754 5750 5747 5743 5740 5736 5732 5728 5724 5720 5717 5713 5709 5706 5702 5698 5694 5690 5686 5683 5679 5675 5672
5779 5779 5779 5778 5777 5776 5775 5774 5772 5771 5769 5767 5764 5762 5759 5756 5753 5750 5747 5744 5741 5737 5734 5730 5726 5722 5718 5714 5710 5706 5702 5698 5694 5689 5685 5681 5677 5672 5668 5665 5661 5657 5654
5769 5769 5768 5768 5766 5765 5764 5762 5760 5759 5757 5754 5752 5750 5747 5744 5741 5738 5734 5731 5727 5724 5720 5716 5712 5708 5703 5699 5695 5691 5686 5682 5677 5673 5668 5664 5659 5655 5651 5647 5643 5639 5635
5758 5758 5757 5756 5755 5753 5752 5750 5748 5746 5744 5742 5739 5737 5734 5731 5728 5724 5720 5717 5713 5709 5705 5701 5697 5692 5688 5683 5679 5674 5670 5665 5660 5656 5651 5647 5642 5637 5633 5629 5625 5621 5617
5747 5746 5745 5744 5742 5741 5739 5737 5735 5733 5730 5728 5725 5723 5719 5716 5713 5710 5706 5702 5698 5694 5690 5686 5681 5677 5672 5667 5663 5658 5653 5648 5644 5639 5635 5630 5625 5621 5616 5611 5607 5603 5599
5735 5734 5732 5731 5730 5728 5726 5724 5721 5719 5716 5714 5711 5708 5705 5701 5698 5695 5691 5687 5683 5678 5674 5670 5665 5661 5656 5651 5646 5641 5636 5631 5627 5622 5618 5613 5609 5604 5599 5594 5590 5586 5582
5722 5721 5719 5718 5716 5714 5712 5710 5707 5705 5702 5700 5697 5694 5690 5686 5683 5679 5675 5671 5667 5662 5658 5653 5649 5644 5639 5634 5629 5624 5619 5614 5610 5605 5601 5597 5592 5587 5582 5577 5573 5569 5565
5709 5707 5706 5704 5702 5700 5698 5696 5693 5691 5688 5685 5682 5678 5675 5671 5667 5663 5659 5654 5650 5646 5641 5636 5632 5627 5622 5617 5612 5607 5602 5597 5592 5588 5583 5579 5575 5570 5565 5561 5557 5553 5549
5695 5693 5692 5690 5688 5686 5683 5681 5678 5676 5673 5670 5666 5663 5659 5655 5651 5647 5642 5638 5634 5629 5624 5619 5615 5610 5605 5600 5595 5590 5585 5580 5575 5570 5566 5562 5558 5554 5549 5545 5541 5537 5534
5681 5679 5677 5675 5673 5670 5668 5666 5663 5660 5657 5654 5650 5647 5643 5639 5634 5630 5626 5621 5617 5612 5607 5602 5598 5593 5588 5583 5578 5573 5569 5564 5559 5554 5549 5545 5542 5537 5533 5529 5526 5522 5519